Flag for Germany Weather past 2 weeks in Schwerte, North Rhine-Westphalia, Germany

Now
50 °F

Scattered clouds.


Feels Like: 48 °F
Forecast: 49 / 59 °F
Wind: 5 mph from Southwest

Location: Dortmund / Wickede

Current Time: Sep 23, 2014 at 10:23:18 AM

Latest Report: Sep 23, 2014 at 9:50 AM


Visibility: N/A

Pressure: 30.18 "Hg

Humidity: 94%

Dew point: 48 °F

Location of SchwerteLocation

Historic Weather in Schwerte — Graph

°F

Schwerte temperature yesterday

Maximum temperature yesterday: 64 °F (at 3:50 PM)
Minimum temperature yesterday: 50 °F (at 10:20 PM)
Average temperature yesterday: 57 °F

Past Weeks' High & Low Weather Summary

 TemperatureHumidityPressure
High77 °F (Sep 16, 1:50 PM)100% (Sep 21, 10:20 AM)30.24 "Hg (Sep 21, 10:20 AM)
Low43 °F (Sep 12, 5:50 AM)39% (Sep 17, 3:20 PM)29.83 "Hg (Sep 19, 5:20 AM)
Average61 °F76%30.04 "Hg
* Reported Sep 8 8:20 AM — Sep 23 8:50 AM, Schwerte, Weather by CustomWeather, © 2014

Note: Actual official high and low records may vary slightly from our data, if they occured in-between our weather recording intervals... More about our weather records

Advertising

Schwerte weather history for previous 24 hours

 ConditionsComfort  
Time TempWeatherWind HumidityBarometerVisibility
8:50 AM
Sep 23
48 °FPassing clouds.5 mph100%30.18 "HgN/A
8:20 AM46 °FScattered clouds.6 mph100%30.18 "HgN/A
7:50 AM46 °FPassing clouds.6 mph100%30.15 "HgN/A
7:20 AM46 °FPassing clouds.6 mph100%30.15 "HgN/A
6:50 AM48 °FClear.6 mph94%30.15 "Hg10 mi
6:20 AM48 °FClear.5 mph94%30.15 "Hg10 mi
5:50 AM46 °FClear.5 mph93%30.15 "Hg10 mi
5:20 AM46 °FClear.5 mph93%30.15 "Hg10 mi
10:50 PM
Sep 22
52 °FClear.3 mph82%30.15 "Hg10 mi
10:20 PM50 °FClear.5 mph88%30.15 "Hg10 mi
9:50 PM52 °FClear.3 mph88%30.15 "Hg10 mi
9:20 PM54 °FPassing clouds.5 mph82%30.15 "HgN/A
8:50 PM55 °FPassing clouds.5 mph82%30.15 "HgN/A
8:20 PM55 °FPassing clouds.5 mph77%30.12 "HgN/A
7:50 PM57 °FPassing clouds.5 mph77%30.12 "HgN/A
7:20 PM59 °FPassing clouds.5 mph77%30.09 "HgN/A
6:50 PM61 °FPassing clouds.5 mph72%30.09 "HgN/A
6:20 PM59 °FScattered clouds.6 mph77%30.09 "HgN/A
5:50 PM61 °FScattered clouds.8 mph72%30.09 "HgN/A
5:20 PM63 °FScattered clouds.6 mph68%30.09 "HgN/A
4:50 PM61 °FScattered clouds.7 mph72%30.09 "HgN/A
4:20 PM61 °FPartly sunny.9 mph68%30.09 "HgN/A
3:50 PM64 °FScattered clouds.8 mph64%30.09 "HgN/A
3:20 PM63 °FScattered clouds.9 mph68%30.09 "HgN/A
2:50 PM59 °FPassing clouds.8 mph77%30.07 "HgN/A
2:20 PM55 °FSunny.6 mph82%30.07 "Hg10 mi
1:50 PM59 °FSunny.5 mph68%30.07 "Hg10 mi
1:20 PM55 °FSprinkles. Scattered clouds.10 mph82%30.07 "HgN/A
12:50 PM59 °FRain showers. Scattered clouds.15 mph68%30.07 "HgN/A
12:20 PM57 °FBroken clouds.10 mph77%30.04 "Hg6 mi
11:50 AM55 °FLight rain. Partly sunny.10 mph82%30.04 "Hg4 mi
11:20 AM55 °FSprinkles. Scattered clouds.12 mph82%30.04 "HgN/A
10:50 AM54 °FSprinkles. Scattered clouds.8 mph100%30.07 "Hg6 mi
10:20 AM55 °FLight rain. Clear.7 mph82%30.07 "HgN/A
Weather by CustomWeather, © 2014

See weather overviewHow to use our weather pages